Regional Weather Roundup
Issued by NWS

Home | Current Version | Previous Version | Graphics & Text | Print | Product List | Glossary On
Versions: 1 2 3 4 5 6 7 8 9 10 11 12 13 14 15 16 17 18 19 20 21 22 23 24 25 26 27 28 29 30 31 32 33 34 35 36 37 38 39 40 41 42 43 44 45 46 47 48 49 50
000
ASUS45 KBOU 050307
RWRCO

WEATHER ROUNDUP FOR COLORADO
NATIONAL WEATHER SERVICE DENVER/BOULDER CO
900 PM MDT WED MAY 04 2016

NOTE: "FAIR" INDICATES FEW OR NO CLOUDS BELOW 12000 FEET WITH NO
SIGNIFICANT WEATHER AND/OR OBSTRUCTIONS TO VISIBILITY.

COZ001>005-013-030-031-050400-
...NORTHWEST COLORADO...

CITY           SKY/WX    TMP DP  RH WIND       PRES   REMARKS
CRAIG          FAIR      54  37  52 N3        30.14R
HAYDEN         FAIR      57  32  38 SW6       30.16R
MEEKER         FAIR      59  28  30 W6        30.15R
MOUNT WERNER   NOT AVBL
STEAMBOAT SPGS FAIR      56  29  34 CALM      30.18R
WALDEN         FAIR      52  18  25 NW5       30.27S
$$

COZ006>008-011-050400-
...WEST CENTRAL VALLEYS...

CITY           SKY/WX    TMP DP  RH WIND       PRES   REMARKS
GRAND JUNCTION FAIR      59  40  49 CALM      30.05S
MONTROSE       FAIR      64  31  28 SW6       30.13R
EAGLE          FAIR      61  28  29 CALM      30.18R
RIFLE          FAIR      60  32  34 SE9       30.10R
DELTA          NOT AVBL
NUCLA          NOT AVBL
$$

COZ017>023-064>068-050400-
...SOUTHWEST COLORADO...

CITY           SKY/WX    TMP DP  RH WIND       PRES   REMARKS
DURANGO        FAIR      55  33  43 CALM      30.21R
CORTEZ         FAIR      57  28  33 N3        30.15R
PAGOSA SPRINGS FAIR      51  29  41 CALM      30.28R
TELLURIDE      FAIR      54  23  30 SE9       30.35R
WOLF CREEK PAS FAIR      36  19  51 SW17      30.53S
$$

COZ009-010-012-014-032>034-037-058>063-050400-
...CENTRAL COLORADO...

CITY           SKY/WX    TMP DP  RH WIND       PRES   REMARKS
ASPEN          FAIR      49  25  39 S9        30.24R
BUENA VISTA    FAIR      55  28  36 W7        30.26R
COPPER MTN     NOT AVBL
BERTHOUD PASS  MOCLDY    32  23  69 E14G25    30.52S WCI  22
COTTONWOOD PAS FAIR      54  14  20 SW9       30.37S
GUNNISON       FAIR      55  25  30 N9        30.26S
KREMMLING      FAIR      54  23  30 CALM      30.22R
LEADVILLE      FAIR      38  16  40 E8        30.36R
MONARCH PASS   FAIR      37  23  56 SW16      30.60R
SALIDA         FAIR      60  27  28 SE10      30.32R
SUNLIGHT       FAIR      46  23  39 CALM      30.46R
WILKERSON PASS FAIR      41  21  45 S12G17    30.48R
$$

COZ069>075-050400-
...SAN LUIS VALLEY/SANGRE DE CRISTO MOUNTAINS...

CITY           SKY/WX    TMP DP  RH WIND       PRES   REMARKS
ALAMOSA        FAIR      53  32  44 S9        30.24R
LA VETA PASS   FAIR      45  14  29 S10G16    30.40S
SAGUACHE       FAIR      48  34  57 N9        30.27S
$$

COZ035-036-038>040-050400-
...NORTHERN COLORADO FRONT RANGE...

CITY           SKY/WX    TMP DP  RH WIND       PRES   REMARKS
DENVER INTL AP FAIR      53  39  59 SE8       30.14S
DMNS CITY PARK   N/A     63  34  33 E16       30.14R
AURORA         FAIR      55  40  57 SE12      30.16S
FRONT RANGE AP NOT AVBL
ERIE MUNI ARPT FAIR      54  42  62 SW3       30.13S
BOULDER MUN AP FAIR      63  34  34 SW3       30.14S
CENTENNIAL     FAIR      59  35  40 SE8       30.16R
BROOMFIELD     PTCLDY    64  32  29 CALM      30.16R
FORT COLLINS   FAIR      63  36  36 SE7       30.12R
LONGMONT       FAIR      59  43  55 W3        30.15R
$$

COZ041-046-047-076>085-087-088-050400-
...PIKES PEAK/PALMER DIVIDE AND SOUTHERN FOOTHILLS...

CITY           SKY/WX    TMP DP  RH WIND       PRES   REMARKS
COLO. SPRINGS  FAIR      58  29  33 SE8       30.21R
A. F. ACADEMY  FAIR      55  28  35 S8        30.21R
SCHRIEVER AFB  NOT AVBL
ELLICOTT       FAIR     N/A N/A N/A S9        30.19S
FALCON         NOT AVBL
FORT CARSON    FAIR      60  32  34 W7        30.18R
LIMON          FAIR      51  40  65 E10       30.17R
MONUMENT HILL  FAIR      50  32  50 S13       30.25R
TRINIDAD       FAIR      57  32  38 S9        30.16R
$$

COZ042>045-048>051-090-091-050400-
...NORTHEAST COLORADO...

CITY           SKY/WX    TMP DP  RH WIND       PRES   REMARKS
GREELEY ARPT   FAIR      61  37  41 SE6       30.12R
AKRON          FAIR      57  39  51 SE9       30.13R
BURLINGTON     FAIR      56  42  59 E9        30.14R
WRAY           NOT AVBL
STERLING       FAIR      57  43  58 CALM      30.10R
HOLYOKE        NOT AVBL
FORT MORGAN    FAIR      58  38  46 E9        30.13R
$$

COZ086-089-092>099-050400-
...SOUTHEAST COLORADO...

CITY           SKY/WX    TMP DP  RH WIND       PRES   REMARKS
PUEBLO         FAIR      61  36  39 E8        30.11R
LA JUNTA       FAIR      64  39  39 SE6       30.10R
LAMAR          FAIR      63  43  48 SE13      30.07R
SPRINGFIELD      N/A     55  42  61 S10       30.14R
$$



USA.gov is the U.S. government's official web portal to all federal, state and local government web resources and services.